Simultaneous Nadir Overpasses (SNOs) Predictions

Prediction of SNOs between AQUA and GOES-15 Satellite Orbit:

Table of predicted SNOs for the next 14.0 days since TLE Epoch: 1/24/2020
Index Date Time (AQUA) AQUA Lat,Lon GOES-15 Lat,Lon Distance(km) Time Diff (sec)
1 01/24/2020 21:58:02 0.59,-125.71 0.04,-128.38 303.54 80
2 01/25/2020 10:19:17 0.51,-130.86 -0.04,-128.36 284.24 80
3 01/27/2020 10:07:07 -0.16,-127.91 -0.04,-128.33 47.98 80
4 01/29/2020 09:54:56 -0.77,-124.95 -0.04,-128.29 379.82 80
5 01/29/2020 22:16:20 -0.38,-130.14 0.04,-128.29 211.08 80
6 01/31/2020 22:04:09 0.24,-127.18 0.04,-128.24 120.50 80
7 02/01/2020 10:25:25 0.81,-132.34 -0.04,-128.22 468.03 80
8 02/02/2020 21:51:58 0.86,-124.22 0.03,-128.19 451.44 80
9 02/03/2020 10:13:13 0.25,-129.37 -0.03,-128.17 137.23 80
10 02/05/2020 10:01:02 -0.37,-126.41 -0.03,-128.11 192.90 80
11 02/05/2020 22:22:26 -0.71,-131.61 0.03,-128.11 397.98 80




NCC Satellite Simultaneous Nadir Overpasses (SNOs) Prediction Service
